www.pogodaiklimat.ru

Архив погоды в Игарке (Красноярский край, Россия)

Время
(UTC), дата
09 8.07
12 8.07
15 8.07
18 8.07
21 8.07
00 9.07
03 9.07
06 9.07
09 9.07
12 9.07
15 9.07
18 9.07
21 9.07
00 10.07
03 10.07
06 10.07
09 10.07
12 10.07
15 10.07
18 10.07
21 10.07
00 11.07
03 11.07
06 11.07
09 11.07
12 11.07
15 11.07
18 11.07
21 11.07
00 12.07
03 12.07
06 12.07
09 12.07
12 12.07
15 12.07
18 12.07
21 12.07
00 13.07
03 13.07
06 13.07
09 13.07
12 13.07
15 13.07
18 13.07
21 13.07
00 14.07
03 14.07
06 14.07
09 14.07
12 14.07
15 14.07
18 14.07
21 14.07
00 15.07
03 15.07
06 15.07
Ветер
(напр.,м/с)
Видим. Явления Облачность Т
(С)
Тd
(С)
f
(%)
Тe
(С)
Тes
(С)
Комфортность P
(гПа)
Po
(гПа)
Тmin
(С)
Tmax
(С)
R
(мм)
R24
(мм)
S
(см)
С 4 {10} 20 км 9/6 600 м
[Cb cap Ac cuf Ci ing]
+19.4 +9.7 53 +20 +22 1006.0 1002.7
СЗ 3 {10} 20 км в посл. час гроза {ливн. дождь} 9/5 1000 м
[Cb cap Ac cuf Ci ing]
+16.2 +11.6 74 +16 +17 1006.5 1003.2 +20.5 0.7
СЗ 1 20 км 9/5 1500 м
[Sc diur, vesp Ac cuf]
+17.0 +10.5 66 +18 +18 1006.5 1003.2
С 3 20 км 9/8 1000 м
[Sc Ac trans]
+15.9 +11.3 74 +15 +15 1005.4 1002.1
С 2 20 км 9/5 1500 м
[Sc Ac trans]
+13.7 +10.2 79 +13 +13 1005.4 1002.1
С 3 20 км 8/4 1500 м
[Sc Ac trans Ci fib]
+14.4 +10.8 79 +13 +14 1005.4 1002.1 +13.1
В 1 20 км 9/4 1000 м
[Cb cap Ac cuf]
+15.4 +10.5 73 +16 +18 1006.1 1002.8
штиль 0 20 км {ливн. дождь} 9/5 1000 м
[Sc diur, vesp Ac cuf Ci fib]
+13.8 +11.9 88 +13 +18 1006.6 1003.3
В 1 20 км 8/3 1000 м
[Sc Ac trans Ci fib]
+17.3 +12.6 74 +18 +23 1006.7 1003.4
В 2 20 км 9/6 1000 м
[Cb cap Ac cuf]
+17.8 +12.8 73 +18 +19 1007.2 1003.9 +19.1 3
штиль 0 20 км {ливн. дождь} 6/3 1000 м
[Sc diur, vesp Ac cuf]
+14.0 +12.9 93 +14 +14 1008.0 1004.7
СЗ 1 4000 м дымка 3/1 1000 м
[Sc Ac trans]
+8.9 +8.5 97 +8 +8 1008.8 1005.4
СЗ 1 4000 м дымка 3/0
[Ci fib]
+7.8 +7.5 98 +7 +7 1008.9 1005.5
штиль 0 20 км 6/0
[Ac trans Ci fib]
+14.0 +12.7 92 +14 +16 1009.4 1006.0 +7.2 2
С 1 20 км 3/0
[Ac trans]
+19.6 +15.0 75 +23 +30 комфорт 1009.7 1006.4
С 1 20 км 3/3 1000 м
[Sc]
+22.8 +13.7 56 +26 +35 жарко 1009.1 1005.9
СВ 2 20 км 3/3 1000 м
[Sc]
+24.7 +10.3 40 +26 +31 жарко 1008.7 1005.5
С 2 20 км 6/5 1000 м
[Sc Ac trans Ci fib]
+25.1 +9.2 36 +26 +27 жарко 1008.0 1004.8 +25.2
С 3 20 км 8/0
[Ac trans Ci fib]
+23.3 +13.3 53 +26 +27 жарко 1007.6 1004.4
С 3 20 км 8/0
[Ac trans]
+19.2 +13.4 69 +21 +21 комфорт 1007.0 1003.7
Ю 1 20 км 9/0
[Ac trans]
+17.7 +13.9 78 +19 +19 1006.2 1002.9
СЗ 3 20 км 9/3 1500 м
[Cb cap Ac cuf]
+17.1 +14.9 87 +17 +17 1005.3 1002.0 +16.4
СВ 1 20 км 9/5 1000 м
[Sc diur, vesp Ac cuf]
+18.7 +15.1 80 +21 +23 комфорт 1005.5 1002.2
СВ 2 10 км слаб. ливневой дождь 9/6 1000 м
[Cb cap Ac cuf]
+17.4 +16.1 92 +18 +20 1005.5 1002.2
В 1 20 км {ливн. дождь} 9/8 600 м
[Cb cap Ac cuf]
+20.0 +16.7 81 +24 +25 комфорт 1005.6 1002.3
штиль 0 20 км {ливн. дождь} 8/5 1000 м
[Cb cap Ac cuf Ci ing]
+19.3 +16.1 82 +21 +22 комфорт 1005.8 1002.5 +20.3 0.0
штиль 0 20 км 8/4 1000 м
[Sc diur, vesp Ac cuf Ci ing]
+16.5 +15.8 96 +16 +16 1006.0 1002.7
С 2 4000 м дымка 4/3 1500 м
[Sc Ac trans Ci fib]
+13.8 +13.3 97 +13 +13 1006.6 1003.3
штиль 0 20 км 3/0
[Ci fib]
+12.5 +12.1 97 +12 +12 1007.3 1004.0
В 1 20 км 8/0
[Ci fib]
+17.1 +14.1 83 +18 +20 1007.9 1004.6 +12.2
ЮВ 1 20 км 8/0
[Ci fib]
+20.2 +15.1 72 +24 +31 комфорт 1008.4 1005.1
С 1 20 км 6/0
[Ac trans Ci fib]
+22.6 +13.3 56 +26 +35 жарко 1007.9 1004.7
В 2 20 км 8/0
[Ac cast Ci fib]
+26.0 +18.6 64 +31 +36 очень душно 1007.2 1004.0
В 1 20 км 9/0
[Ac trans Ci fib]
+23.7 +13.4 52 +26 +28 жарко 1007.2 1004.0 +26.1
С 1 20 км 9/0
[Ac trans Ci fib]
+21.4 +14.6 65 +24 +25 комфорт 1006.3 1003.1
С 2 20 км 9/0
[Ac trans Ci fib]
+19.3 +13.7 70 +21 +21 комфорт 1005.1 1001.8
С 2 20 км 9/0
[Ac trans Ci fib]
+18.1 +13.7 75 +19 +19 1003.6 1000.3
штиль 0 20 км 9/3 1500 м
[Sc Ac trans Ci fib]
+17.9 +14.8 82 +18 +19 1003.2 999.9 +17.2
З 1 20 км 9/3 1000 м
[Sc Ac trans Ci fib]
+19.6 +16.8 84 +23 +26 комфорт 1003.0 999.7
Ю 1 10 км слаб. ливневой дождь 9/6 1000 м
[Cb cap Ac cuf]
+18.9 +17.8 93 +21 +24 комфорт 1004.1 1000.8
ЮЗ 1 20 км {ливн. дождь} 9/4 1000 м
[Cb cap Ac cuf Ci ing]
+18.9 +16.9 88 +21 +25 комфорт 1004.8 1001.5
штиль 0 20 км {ливн. дождь} 9/5 1000 м
[Sc diur, vesp Ac cuf]
+18.3 +16.3 88 +19 +20 1006.0 1002.7 +20.0 3
штиль 0 20 км 9/1 1500 м
[Sc Ac trans Ci fib]
+18.0 +16.3 90 +18 +18 1006.5 1003.2
штиль 0 4000 м дымка 8/0
[Ac trans Ci fib]
+14.5 +14.1 97 +14 +14 1007.1 1003.8
СЗ 1 500 м туман, небо видно 8/0
[Ac trans Ci fib]
+13.5 +13.3 99 +14 +14 1007.9 1004.6
СЗ 1 4000 м дымка {туман} 9/8 300 м
[St Ci fib]
+16.5 +16.2 98 +17 +18 1008.9 1005.6 +13.0
С 3 20 км 9/5 300 м
[St Ci fib]
+18.5 +15.8 84 +19 +22 1010.0 1006.7
СЗ 3 20 км 9/4 600 м
[Sc Ci fib]
+21.1 +16.1 73 +24 +29 комфорт 1010.1 1006.9
СЗ 4 20 км 8/3 600 м
[Sc Ci fib]
+20.7 +14.9 69 +24 +27 комфорт 1011.0 1007.8
С 2 20 км 8/5 600 м
[Sc Ci fib]
+21.1 +15.4 70 +24 +25 комфорт 1011.5 1008.3 +21.6
С 3 20 км 8/3 1000 м
[Sc Ci fib]
+18.5 +14.2 76 +19 +19 1012.4 1009.1
С 3 20 км 4/0
[Ci fib]
+15.5 +13.2 86 +15 +15 1013.1 1009.7
С 3 20 км 6/0
[Ci fib]
+13.5 +11.3 87 +12 +12 1013.1 1010.1
С 3 20 км 6/0
[Ac trans Ci fib]
+15.7 +10.0 69 +15 +17 1014.0 1010.6 +13.4
С 4 {10} 20 км 3/0
[Ac trans Ci fib]
+18.4 +11.3 63 +19 +23 1013.9 1010.6
С 4 {10} 20 км 3/0
[Ac trans Ci fib]
+20.6 +11.4 56 +23 +29 комфорт 1013.9 1010.6
Местоположение метеостанции Игарка (Красноярский край, Россия): широта 67.47 долгота 86.57 высота над уровнем моря 28 м.
В архиве по умолчанию представлена погода в Игарке за последнюю неделю. Архивные данные за месяц целиком и за предыдущие месяцы, начиная с января 2011 года, Вы можете получить, выбрав интересующий диапазон дат из раскрывающегося списка и нажав кнопку "Найти!".
*Определитесь, кто Вы:
Внимание! Время в таблицах - всемирное. Для получения местного времени необходимо прибавить поправку, которая равна 7 ч.
Некоторые строки с данными для отдельных станций могут быть выделены курсивом. Это означает, что фактические данные отсутствуют по различным причинам, а приведенные значения являются расчетными модельными данными для данного пункта наблюдений.
Смотрите также архив погоды в соседних городах и на ближайших метеорологических станциях:
Партнеры нашего сайта:      
Пояснения к столбцам:
  • Ветер - указаны скорость ветра в м/с - средняя за 10 мин, порывы в срок и между сроками (в фигурных скобках) и направление, откуда дует ветер: С - северный,
  • СВ - северо-восточный, В - восточный, ЮВ - юго-восточный, Ю - южный, ЮЗ - юго-западный, З - западный, СЗ - северо-западный.
  • Видимость - горизонтальная дальность видимости в метрах или километрах. При видимости от 1 до 10 км при отсутствии осадков обычно наблюдается дымка, при ухудшении видимости до 1 км и менее - туман. В сухую погоду видимость может ухудшаться дымом, пылью или мглою.
  • Явления - указаны атмосферные явления, наблюдавшиеся в срок или в последний час перед сроком; фигурными скобками обозначены явления, наблюдавшиеся между сроками (за 1-3 часа до срока); квадратными скобками обозначены град или гололедные отложения с указанием их диаметра в мм.
  • Облачность - указаны через наклонную черту общая и нижняя облачность в баллах и высота нижней границы облаков в метрах; квадратными скобками обозначены формы облаков: Ci - перистые, Cs - перисто-слоистые, Cc - перисто-кучевые, Ac - высококучевые, As - высокослоистые, Sc - слоисто-кучевые, Ns - слоисто-дождевые, Cu - кучевые, Cb - кучево-дождевые. Подробнее классификацию облаков см. в Атласе облаков (PDF).
  • T - Температура воздуха - температура, измеренная на высоте 2 м над землей.
  • Td - Температура точки росы - температура, при понижении до которой содержащийся в воздухе водяной пар достигнет насыщения.
  • f - Относительная влажность воздуха - влажноcть воздуха, измеренная на высоте 2 м над землей.
  • Te - Эффективная температура - температура, которую ощущает одетый по сезону человек в тени. Характеристика душности погоды. При расчете учитывается влияние влажности воздуха и скорости ветра на теплоощущения человека.
  • Tes - Эффективная температура на солнце - температура, которую ощущает человек, с поправкой на солнечный нагрев. Характеристика знойности погоды. Зависит от высоты солнца над горизонтом, облачности и скорости ветра. Ночью, в пасмурную погоду, а также при ветре 12 м/с и более поправка равна нулю.
  • P - Атмосферное давление - приведенное к уровню моря атмосферное давление.
  • Po - Атмосферное давление - измеренное на уровне метеостанции атмосферное давление.
  • Tmin - Минимальная температура - минимум температуры воздуха на высоте 2 м над землей.
  • Tmax - Максимальная температура - максимум температуры воздуха на высоте 2 м над землей.
  • R - Количество осадков - Количество выпавших осадков за период времени, мм. При наведении курсора мыши на число - период времени, за который выпало указанное количество осадков.
  • R24 - Количество осадков - Количество выпавших осадков за 24 часа, мм.
  • S - Снежный покров - Высота снежного покрова, см. При наведении курсора мыши на число - состояние снежного покрова и степень покрытия местности в баллах.